TimePDT,TemperatureF,Dew PointF,Humidity,Sea Level PressureIn,VisibilityMPH,Wind Direction,Wind SpeedMPH,Gust SpeedMPH,PrecipitationIn,Events,Conditions,WindDirDegrees,DateUTC
12:54 AM,53.1,51.1,93,30.00,10.0,WSW,3.5,-,N/A,,Clear,250,2012-10-09 07:54:00
1:54 AM,48.9,48.0,97,30.00,8.0,West,3.5,-,N/A,,Clear,280,2012-10-09 08:54:00
2:54 AM,48.0,46.0,93,30.01,4.0,Calm,Calm,-,N/A,,Clear,0,2012-10-09 09:54:00
3:47 AM,46.4,44.6,93,30.02,1.2,Calm,Calm,-,N/A,,Partly Cloudy,0,2012-10-09 10:47:00
3:50 AM,44.6,44.6,100,30.02,0.5,Calm,Calm,-,N/A,Fog,Fog,0,2012-10-09 10:50:00
3:54 AM,46.9,45.0,93,30.00,0.5,Calm,Calm,-,N/A,Fog,Fog,0,2012-10-09 10:54:00
3:59 AM,46.4,44.6,93,30.02,1.2,Calm,Calm,-,N/A,,Partly Cloudy,0,2012-10-09 10:59:00
4:10 AM,46.4,44.6,93,30.02,0.8,Calm,Calm,-,N/A,,Mist,0,2012-10-09 11:10:00
4:18 AM,44.6,44.6,100,30.02,1.2,Calm,Calm,-,N/A,,Scattered Clouds,0,2012-10-09 11:18:00
4:20 AM,44.6,44.6,100,30.02,3.0,Calm,Calm,-,N/A,,Partly Cloudy,0,2012-10-09 11:20:00
4:54 AM,46.0,44.1,93,29.99,10.0,North,3.5,-,N/A,,Partly Cloudy,360,2012-10-09 11:54:00
5:54 AM,46.0,44.1,93,29.99,10.0,Calm,Calm,-,N/A,,Partly Cloudy,0,2012-10-09 12:54:00
6:54 AM,50.0,46.9,89,30.00,10.0,North,3.5,-,N/A,,Overcast,350,2012-10-09 13:54:00
7:03 AM,50.0,46.4,87,30.02,10.0,North,5.8,-,N/A,,Overcast,350,2012-10-09 14:03:00
7:11 AM,50.0,48.2,94,30.03,10.0,North,3.5,-,N/A,,Overcast,350,2012-10-09 14:11:00
7:54 AM,48.0,46.0,93,29.99,9.0,Calm,Calm,-,N/A,,Partly Cloudy,0,2012-10-09 14:54:00
8:54 AM,55.0,50.0,83,30.01,10.0,North,3.5,-,N/A,,Clear,360,2012-10-09 15:54:00
9:54 AM,60.1,51.1,72,30.01,10.0,Variable,3.5,-,N/A,,Clear,0,2012-10-09 16:54:00
10:54 AM,63.0,52.0,67,30.01,10.0,SW,8.1,-,N/A,,Unknown,220,2012-10-09 17:54:00
11:54 AM,-9999,-9999,N/A,30.00,-9999.0,SW,3.5,-,N/A,,Partly Cloudy,230,2012-10-09 18:54:00
12:54 PM,69.1,52.0,54,29.97,10.0,SSW,6.9,-,N/A,,Clear,210,2012-10-09 19:54:00
1:54 PM,71.1,52.0,51,29.94,10.0,SSW,9.2,-,N/A,,Scattered Clouds,200,2012-10-09 20:54:00
2:54 PM,71.1,51.1,49,29.93,10.0,SSW,6.9,-,N/A,,Clear,210,2012-10-09 21:54:00
3:54 PM,72.0,48.9,44,29.91,10.0,SW,5.8,-,N/A,,Clear,220,2012-10-09 22:54:00
4:54 PM,71.1,53.1,53,29.90,10.0,SSW,12.7,-,N/A,,Clear,200,2012-10-09 23:54:00
5:54 PM,68.0,54.0,61,29.91,10.0,SW,12.7,-,N/A,,Clear,220,2012-10-10 00:54:00
6:54 PM,63.0,50.0,63,29.91,10.0,West,5.8,-,N/A,,Clear,270,2012-10-10 01:54:00
7:54 PM,59.0,48.9,69,29.93,10.0,Calm,Calm,-,N/A,,Clear,0,2012-10-10 02:54:00
8:54 PM,57.9,48.9,72,29.94,10.0,West,4.6,-,N/A,,Clear,260,2012-10-10 03:54:00
9:54 PM,55.0,48.9,80,29.93,10.0,Calm,Calm,-,N/A,,Clear,0,2012-10-10 04:54:00
10:54 PM,52.0,46.9,83,29.93,10.0,SW,5.8,-,N/A,,Clear,230,2012-10-10 05:54:00
11:54 PM,51.1,46.9,86,29.94,10.0,SW,8.1,-,N/A,,Clear,220,2012-10-10 06:54:00